SHIJIAN 30A

导读

SJ-30A(实践三十号A)是中国于2025年11月19日在酒泉卫星发射中心,通过长征二号丙运载火箭发射升空的科学实验卫星,它与实践三十号B、C星一同进入预定轨道,发射任务圆满成功。该卫星主要用于开展空间环境探测,同时完成空间领域相关新技术的在轨验证,为中国空间科学研究与技术发展积累重要数据与经验。

基本信息
目录编号:
66545
目录名称:
SJ-30A
国际标识:
2025-266A
轨道中心:
EARTH
卫星名称:
SJ-30A
卫星全名:
SHIJIAN 30A
卫星状态:
在轨 (已飞行298 天)
发射日期:
2025-11-19 UTC
国别 :
中国 (CN)
星等 :
--
该卫星已列入 空间交会检测服务 Space Conjunction Data Service (SCDS) ,当前飞行风险评估等级: 无高风险
轨道信息
数据来源 国际轨道数据 AOE轨道数据
星历时间 2026-09-13T06:34:15+0800
6小时前
查看轨道信息
2026-09-10T16:00:00+0800
2天前
查看轨道信息
半长轴 6897.349km 6897.473km
偏心率 0.0006729 0.0006545
轨道倾角 51.798° 51.799°
近地点辐角 180.553° 170.201°
升交点赤经 128.301° 140.516°
平近点角 179.544° 356.340°
近地点 514.57km 514.821km
远地点 523.854km 523.851km
周期 95.013分钟 95.016分钟
每日圈数 15.155823 15.155413
详细信息
使用方式:
暂无
2D轨道图
3D轨道图
轨道高度分析图
轨道倾角分析图
轨道综合分析图
查看轨道综合分析图
交会数据列表
事件ID 空间交会对象 最接近时刻(TCA) 交会距离 交会风险概率(CRP) 交会风险指数(CRI) 操作
CDM_260914-080906-233306-654523
SJ-30A (66545)
2026-09-14T
08:09:10+0000
2.559 km
极远距离
1.387463E-6 低风险 0.38
与全量物体交会距离演化趋势
与全量物体交会风险概率演化趋势